,,Stat1,,Stat2,,Stat3,,Stat4,,Wind1,,Wind1,
time,status,PR1M_SUM,status,RH1M_AVG,status,SR1M_AVG,status,TA1M_AVG,status,W1dAve1m,status,W1sAve1m,
1999-08-25, 00:00:00,VALID,0,VALID,98.7719,VALID,0,VALID,18.762,VALID,223,VALID,0.797476,
1999-08-25, 00:01:01,VALID,0,VALID,98.7248,VALID,0,VALID,18.7647,VALID,212,VALID,0.602965,
1999-08-25, 00:02:00,VALID,0,VALID,98.6409,VALID,0.0339617,VALID,18.7709,VALID,217,VALID,0.773633,
1999-08-25, 00:03:00,VALID,0,VALID,98.5799,VALID,0.0169808,VALID,18.7843,VALID,218,VALID,0.776259,
1999-08-25, 00:04:00,VALID,0,VALID,98.5277,VALID,0.0169808,VALID,18.7839,VALID,221,VALID,0.455729,
1999-08-25, 00:05:00,VALID,0,VALID,98.4387,VALID,0.0339617,VALID,18.7936,VALID,217,VALID,0.444046,
1999-08-25, 00:06:00,VALID,0,VALID,98.3256,VALID,0.0679233,VALID,18.8159,VALID,213,VALID,0.59375,
1999-08-25, 00:07:00,VALID,0,VALID,98.1717,VALID,0.0509425,VALID,18.8388,VALID,202,VALID,0.656461,
1999-08-25, 00:08:00,VALID,0,VALID,98.07,VALID,0.0339617,VALID,18.8711,VALID,208,VALID,0.500801,
1999-08-25, 00:09:00,VALID,0,VALID,97.9225,VALID,0,VALID,18.8877,VALID,206,VALID,0.571484,
1999-08-25, 00:10:00,VALID,0,VALID,97.8106,VALID,0.0169808,VALID,18.9037,VALID,213,VALID,0.665402,
1999-08-25, 00:11:00,VALID,0,VALID,97.6681,VALID,0,VALID,18.9424,VALID,205,VALID,0.508203,
1999-08-25, 00:12:01,VALID,0,VALID,97.4227,VALID,0.0509425,VALID,18.9685,VALID,197,VALID,0.979235,
1999-08-25, 00:13:00,VALID,0,VALID,97.2549,VALID,0.0339617,VALID,18.9775,VALID,206,VALID,0.912373,
1999-08-25, 00:14:00,VALID,0,VALID,97.1341,VALID,0,VALID,19.0205,VALID,204,VALID,0.579527,
1999-08-25, 00:15:00,VALID,0,VALID,96.7818,VALID,0,VALID,19.023,VALID,190,VALID,1.2157,
1999-08-25, 00:16:00,VALID,0,VALID,96.5504,VALID,0.0339617,VALID,19.0909,VALID,208,VALID,0.649023,
1999-08-25, 00:17:00,VALID,0,VALID,96.4652,VALID,0.0339617,VALID,19.1135,VALID,205,VALID,0.348273,
1999-08-25, 00:18:00,VALID,0,VALID,96.3584,VALID,0.0509425,VALID,19.1169,VALID,220,VALID,0.672066,
1999-08-25, 00:19:00,VALID,0,VALID,96.2554,VALID,0.0339617,VALID,19.1199,VALID,218,VALID,0.667441,
1999-08-25, 00:20:00,VALID,0,VALID,96.2973,VALID,0.0339617,VALID,19.1234,VALID,181,VALID,0.496833,
1999-08-25, 00:21:00,VALID,0,VALID,96.3609,VALID,0.0169808,VALID,19.1169,VALID,172,VALID,0.188502,
1999-08-25, 00:22:00,VALID,0,VALID,96.6152,VALID,0,VALID,19.1204,VALID,158,VALID,0.327914,
1999-08-25, 00:23:00,VALID,0,VALID,96.895,VALID,0.0339617,VALID,19.107,VALID,114,VALID,0.48273,
1999-08-25, 00:24:00,VALID,0,VALID,96.9395,VALID,0.0169808,VALID,19.0846,VALID,135,VALID,0.0078125,
1999-08-25, 00:25:00,VALID,0,VALID,96.9522,VALID,0,VALID,19.0715,VALID,112,VALID,0,
1999-08-25, 00:26:00,VALID,0,VALID,96.9344,VALID,0.0169808,VALID,19.0526,VALID,107,VALID,0,
1999-08-25, 00:27:00,VALID,0,VALID,97.04,VALID,0.0169808,VALID,19.0391,VALID,104,VALID,0,
1999-08-25, 00:28:00,VALID,0,VALID,97.2396,VALID,0.0339617,VALID,19.0329,VALID,103,VALID,0,
1999-08-25, 00:29:00,VALID,0,VALID,97.2498,VALID,-0.0509425,VALID,19.0182,VALID,104,VALID,0,
1999-08-25, 00:30:00,VALID,0,VALID,97.3019,VALID,-0.101885,VALID,18.9983,VALID,112,VALID,0,
1999-08-25, 00:31:00,VALID,0,VALID,97.4036,VALID,-0.101885,VALID,18.9919,VALID,114,VALID,0,
1999-08-25, 00:32:00,VALID,0,VALID,97.5461,VALID,-0.101885,VALID,19.0023,VALID,115,VALID,0,
1999-08-25, 00:33:00,VALID,0,VALID,97.63,VALID,-0.0849042,VALID,18.9953,VALID,172,VALID,0,
1999-08-25, 00:34:01,VALID,0,VALID,97.6758,VALID,-0.101885,VALID,18.9762,VALID,267,VALID,0,
1999-08-25, 00:35:00,VALID,0,VALID,97.7813,VALID,-0.101885,VALID,18.9637,VALID,276,VALID,0,
1999-08-25, 00:36:00,VALID,0,VALID,97.8818,VALID,-0.0849042,VALID,18.928,VALID,276,VALID,0,
1999-08-25, 00:37:00,VALID,0,VALID,98.0026,VALID,-0.101885,VALID,18.8855,VALID,276,VALID,0,
1999-08-25, 00:38:00,VALID,0,VALID,98.1259,VALID,-0.101885,VALID,18.8698,VALID,276,VALID,0,
1999-08-25, 00:39:00,VALID,0,VALID,98.2315,VALID,-0.0679233,VALID,18.8432,VALID,276,VALID,0,
1999-08-25, 00:40:00,VALID,0,VALID,98.3332,VALID,-0.101885,VALID,18.8308,VALID,276,VALID,0,
1999-08-25, 00:41:00,VALID,0,VALID,98.4171,VALID,-0.0849042,VALID,18.8104,VALID,276,VALID,0,
1999-08-25, 00:42:00,VALID,0,VALID,98.4731,VALID,-0.101885,VALID,18.8049,VALID,276,VALID,0,
1999-08-25, 00:43:00,VALID,0,VALID,98.5761,VALID,-0.0679233,VALID,18.8077,VALID,199,VALID,0,
1999-08-25, 00:44:01,VALID,0,VALID,98.7299,VALID,-0.0339617,VALID,18.8423,VALID,149,VALID,0,
1999-08-25, 00:45:01,VALID,0,VALID,98.7503,VALID,-0.0169808,VALID,18.8457,VALID,138,VALID,0,
1999-08-25, 00:46:00,VALID,0,VALID,98.7236,VALID,0,VALID,18.8196,VALID,141,VALID,0,
1999-08-25, 00:47:00,VALID,0,VALID,98.7159,VALID,0,VALID,18.807,VALID,142,VALID,0.377477,
1999-08-25, 00:48:00,VALID,0,VALID,98.7261,VALID,-0.0169808,VALID,18.7873,VALID,140,VALID,0.69082,
1999-08-25, 00:49:00,VALID,0,VALID,98.7096,VALID,-0.0169808,VALID,18.7744,VALID,138,VALID,0.75514,
1999-08-25, 00:50:00,VALID,0,VALID,98.6841,VALID,-0.0169808,VALID,18.7578,VALID,138,VALID,0.749238,
1999-08-25, 00:51:00,VALID,0,VALID,98.6524,VALID,-0.0169808,VALID,18.7257,VALID,141,VALID,0.539274,
1999-08-25, 00:52:00,VALID,0,VALID,98.66,VALID,0,VALID,18.7363,VALID,141,VALID,0.568623,
1999-08-25, 00:53:00,VALID,0,VALID,98.6765,VALID,0,VALID,18.7065,VALID,136,VALID,0.715345,
1999-08-25, 00:54:00,VALID,0,VALID,98.7325,VALID,-0.0169808,VALID,18.7095,VALID,132,VALID,0.591216,
1999-08-25, 00:55:00,VALID,0,VALID,98.7681,VALID,0,VALID,18.7197,VALID,137,VALID,0.540296,
1999-08-25, 00:56:00,VALID,0,VALID,98.7808,VALID,0,VALID,18.7195,VALID,143,VALID,0.483347,
1999-08-25, 00:57:00,VALID,0,VALID,98.7808,VALID,0,VALID,18.7197,VALID,148,VALID,0.235577,
1999-08-25, 00:58:00,VALID,0,VALID,98.749,VALID,-0.0169808,VALID,18.6999,VALID,169,VALID,0.176098,
1999-08-25, 00:59:00,VALID,0,VALID,98.7426,VALID,-0.101885,VALID,18.7043,VALID,186,VALID,0,
1999-08-25, 01:00:00,VALID,0,VALID,98.7732,VALID,-0.0509425,VALID,18.7043,VALID,216,VALID,0,
1999-08-25, 01:01:00,VALID,0,VALID,98.7375,VALID,-0.101885,VALID,18.7144,VALID,216,VALID,0,
1999-08-25, 01:02:00,VALID,0,VALID,98.749,VALID,-0.0849042,VALID,18.7008,VALID,214,VALID,0,
1999-08-25, 01:03:00,VALID,0,VALID,98.7363,VALID,-0.101885,VALID,18.7144,VALID,217,VALID,0.890234,
1999-08-25, 01:04:00,VALID,0,VALID,98.6981,VALID,-0.118866,VALID,18.7341,VALID,221,VALID,0.834459,
1999-08-25, 01:05:00,VALID,0,VALID,98.6167,VALID,-0.101885,VALID,18.7497,VALID,218,VALID,0.824535,
1999-08-25, 01:06:01,VALID,0,VALID,98.557,VALID,-0.0679233,VALID,18.753,VALID,220,VALID,0.995793,
1999-08-25, 01:07:00,VALID,0,VALID,98.515,VALID,-0.0849042,VALID,18.7731,VALID,213,VALID,0.841283,
1999-08-25, 01:08:00,VALID,0,VALID,98.5341,VALID,-0.101885,VALID,18.7627,VALID,196,VALID,0.645693,
1999-08-25, 01:09:00,VALID,0,VALID,98.5341,VALID,-0.101885,VALID,18.7564,VALID,187,VALID,0.554688,
1999-08-25, 01:10:00,VALID,0,VALID,98.5455,VALID,-0.101885,VALID,18.7502,VALID,182,VALID,0.366571,
1999-08-25, 01:11:00,VALID,0,VALID,98.5799,VALID,-0.101885,VALID,18.7269,VALID,169,VALID,0.573918,
1999-08-25, 01:12:00,VALID,0,VALID,98.6384,VALID,-0.0849042,VALID,18.7209,VALID,154,VALID,0.566907,
1999-08-25, 01:13:00,VALID,0,VALID,98.6702,VALID,-0.0679233,VALID,18.7244,VALID,165,VALID,0.516406,
1999-08-25, 01:14:00,VALID,0,VALID,98.6638,VALID,0,VALID,18.7033,VALID,185,VALID,0.476116,
1999-08-25, 01:15:00,VALID,0,VALID,98.7108,VALID,0.0339617,VALID,18.7031,VALID,188,VALID,0.128906,
1999-08-25, 01:16:00,VALID,0,VALID,98.7566,VALID,0,VALID,18.7033,VALID,194,VALID,0.299959,
1999-08-25, 01:17:00,VALID,0,VALID,98.7935,VALID,0,VALID,18.6969,VALID,201,VALID,0.335515,
1999-08-25, 01:18:00,VALID,0,VALID,98.8278,VALID,0,VALID,18.6929,VALID,208,VALID,0.339744,
1999-08-25, 01:19:00,VALID,0,VALID,98.8342,VALID,0,VALID,18.6996,VALID,211,VALID,0.344512,
1999-08-25, 01:20:00,VALID,0,VALID,98.8673,VALID,0,VALID,18.7093,VALID,213,VALID,0.316211,
1999-08-25, 01:21:00,VALID,0,VALID,98.8634,VALID,0.0169808,VALID,18.713,VALID,217,VALID,0.296053,
1999-08-25, 01:22:00,VALID,0,VALID,98.8787,VALID,0,VALID,18.713,VALID,211,VALID,0.396341,
1999-08-25, 01:23:00,VALID,0,VALID,98.8647,VALID,0.0169808,VALID,18.71,VALID,227,VALID,0.468539,
1999-08-25, 01:24:00,VALID,0,VALID,98.8698,VALID,0,VALID,18.6999,VALID,227,VALID,0.615076,
1999-08-25, 01:25:00,VALID,0,VALID,98.8812,VALID,0.0169808,VALID,18.6894,VALID,227,VALID,0.629207,
1999-08-25, 01:26:00,VALID,0,VALID,98.9105,VALID,0,VALID,18.6966,VALID,229,VALID,0.698269,
1999-08-25, 01:27:00,VALID,0,VALID,98.9346,VALID,0.0169808,VALID,18.6966,VALID,230,VALID,0.833676,
1999-08-25, 01:28:00,VALID,0,VALID,98.9385,VALID,0.0169808,VALID,18.6966,VALID,219,VALID,0.593133,
1999-08-25, 01:29:00,VALID,0,VALID,98.9575,VALID,0,VALID,18.7026,VALID,209,VALID,0.576122,
1999-08-25, 01:30:00,VALID,0,VALID,98.9753,VALID,0,VALID,18.7026,VALID,210,VALID,0.518581,
1999-08-25, 01:31:00,VALID,0,VALID,98.9944,VALID,0.0339617,VALID,18.7058,VALID,201,VALID,0.601953,
1999-08-25, 01:32:00,VALID,0,VALID,98.9931,VALID,0.0849042,VALID,18.7093,VALID,193,VALID,0.707532,
1999-08-25, 01:33:00,VALID,0,VALID,98.9842,VALID,0.0169808,VALID,18.7063,VALID,192,VALID,0.853906,
1999-08-25, 01:34:00,VALID,0,VALID,99.0084,VALID,0.0169808,VALID,18.7031,VALID,194,VALID,0.763569,
1999-08-25, 01:35:00,VALID,0,VALID,99.0084,VALID,0.0339617,VALID,18.6994,VALID,202,VALID,0.686523,
1999-08-25, 01:36:00,VALID,0,VALID,98.9982,VALID,0,VALID,18.7225,VALID,215,VALID,0.65076,
1999-08-25, 01:37:00,VALID,0,VALID,98.9804,VALID,0.0169808,VALID,18.719,VALID,208,VALID,0.675676,
1999-08-25, 01:38:00,VALID,0,VALID,98.9664,VALID,0.0169808,VALID,18.7255,VALID,195,VALID,0.602163,
1999-08-25, 01:39:00,VALID,0,VALID,98.9614,VALID,0.0339617,VALID,18.7153,VALID,185,VALID,0.574013,
1999-08-25, 01:40:01,VALID,0,VALID,98.9372,VALID,0.0339617,VALID,18.722,VALID,180,VALID,0.566301,
1999-08-25, 01:41:00,VALID,0,VALID,98.9245,VALID,0.0169808,VALID,18.7121,VALID,201,VALID,0.729441,
1999-08-25, 01:42:00,VALID,0,VALID,98.8965,VALID,0.0169808,VALID,18.7222,VALID,198,VALID,0.844161,
1999-08-25, 01:43:00,VALID,0,VALID,98.8711,VALID,0.0679233,VALID,18.7421,VALID,194,VALID,0.734175,
1999-08-25, 01:44:00,VALID,0,VALID,98.81,VALID,-0.101885,VALID,18.7465,VALID,173,VALID,0.666266,
1999-08-25, 01:45:00,VALID,0,VALID,98.7439,VALID,-0.101885,VALID,18.7463,VALID,161,VALID,0.813672,
1999-08-25, 01:46:00,VALID,0,VALID,98.6956,VALID,-0.0849042,VALID,18.7527,VALID,152,VALID,0.945536,
1999-08-25, 01:47:00,VALID,0,VALID,98.6231,VALID,-0.0849042,VALID,18.7627,VALID,153,VALID,1.06484,
1999-08-25, 01:48:00,VALID,0,VALID,98.5633,VALID,-0.101885,VALID,18.7629,VALID,154,VALID,0.99815,
1999-08-25, 01:49:00,VALID,0,VALID,98.4832,VALID,-0.101885,VALID,18.7818,VALID,159,VALID,1.08847,
1999-08-25, 01:50:00,VALID,0,VALID,98.3421,VALID,-0.0849042,VALID,18.7947,VALID,164,VALID,0.853165,
1999-08-25, 01:51:01,VALID,0,VALID,98.1628,VALID,-0.0849042,VALID,18.8111,VALID,175,VALID,0.923971,
1999-08-25, 01:52:00,VALID,0,VALID,98.0013,VALID,-0.101885,VALID,18.8278,VALID,180,VALID,0.908203,
1999-08-25, 01:53:00,VALID,0,VALID,97.8792,VALID,-0.0849042,VALID,18.8499,VALID,183,VALID,0.73273,
1999-08-25, 01:54:00,VALID,0,VALID,97.7559,VALID,-0.118866,VALID,18.8656,VALID,172,VALID,0.778011,
1999-08-25, 01:55:00,VALID,0,VALID,97.6605,VALID,-0.101885,VALID,18.882,VALID,171,VALID,0.496199,
1999-08-25, 01:56:00,VALID,0,VALID,97.6134,VALID,-0.0849042,VALID,18.9051,VALID,173,VALID,0.544552,
1999-08-25, 01:57:00,VALID,0,VALID,97.5613,VALID,-0.0849042,VALID,18.9078,VALID,179,VALID,0.580729,
1999-08-25, 01:58:00,VALID,0,VALID,97.5206,VALID,-0.101885,VALID,18.9309,VALID,193,VALID,0.486275,
1999-08-25, 01:59:00,VALID,0,VALID,97.4558,VALID,-0.101885,VALID,18.9543,VALID,207,VALID,0.73273,
1999-08-25, 02:00:00,VALID,0,VALID,97.4113,VALID,-0.0679233,VALID,18.9633,VALID,208,VALID,0.96875,
1999-08-25, 02:01:00,VALID,0,VALID,97.3159,VALID,-0.118866,VALID,18.9864,VALID,205,VALID,1.04187,
1999-08-25, 02:02:01,VALID,0,VALID,97.246,VALID,-0.0849042,VALID,18.9956,VALID,200,VALID,0.996622,
1999-08-25, 02:03:00,VALID,0,VALID,97.1964,VALID,-0.101885,VALID,19.002,VALID,202,VALID,0.847266,
1999-08-25, 02:04:00,VALID,0,VALID,97.1722,VALID,-0.101885,VALID,18.9752,VALID,198,VALID,1.15365,
1999-08-25, 02:05:00,VALID,0,VALID,97.1404,VALID,-0.0679233,VALID,18.9824,VALID,206,VALID,1.04062,
1999-08-25, 02:06:00,VALID,0,VALID,97.0692,VALID,-0.101885,VALID,18.9854,VALID,206,VALID,1.09827,
1999-08-25, 02:07:00,VALID,0,VALID,97.0883,VALID,-0.101885,VALID,18.9988,VALID,206,VALID,0.957422,
1999-08-25, 02:08:00,VALID,0,VALID,97.0997,VALID,-0.0849042,VALID,18.9889,VALID,200,VALID,0.880912,
1999-08-25, 02:09:00,VALID,0,VALID,97.115,VALID,-0.101885,VALID,18.9787,VALID,192,VALID,1.21537,
1999-08-25, 02:10:00,VALID,0,VALID,97.0794,VALID,-0.0849042,VALID,18.9956,VALID,188,VALID,1.29968,
1999-08-25, 02:11:00,VALID,0,VALID,97.0361,VALID,-0.101885,VALID,19.0018,VALID,184,VALID,1.11616,
1999-08-25, 02:12:00,VALID,0,VALID,97.0514,VALID,-0.0849042,VALID,19.0016,VALID,181,VALID,0.830236,
1999-08-25, 02:13:01,VALID,0,VALID,97.0794,VALID,-0.0849042,VALID,19.0053,VALID,176,VALID,0.629934,
1999-08-25, 02:14:00,VALID,0,VALID,97.1442,VALID,-0.0849042,VALID,18.9886,VALID,186,VALID,0.613898,
1999-08-25, 02:15:00,VALID,0,VALID,97.2345,VALID,-0.101885,VALID,18.972,VALID,203,VALID,0.659655,
1999-08-25, 02:16:00,VALID,0,VALID,97.3134,VALID,-0.0679233,VALID,18.9692,VALID,211,VALID,0.874399,
1999-08-25, 02:17:00,VALID,0,VALID,97.3617,VALID,-0.101885,VALID,18.9561,VALID,212,VALID,0.846875,
1999-08-25, 02:18:00,VALID,0,VALID,97.438,VALID,-0.0679233,VALID,18.9432,VALID,216,VALID,1.16205,
1999-08-25, 02:19:00,VALID,0,VALID,97.5168,VALID,-0.101885,VALID,18.9374,VALID,202,VALID,1.12031,
1999-08-25, 02:20:00,VALID,0,VALID,97.6198,VALID,-0.101885,VALID,18.9141,VALID,200,VALID,0.782484,
1999-08-25, 02:21:00,VALID,0,VALID,97.691,VALID,-0.101885,VALID,18.9118,VALID,186,VALID,0.885135,
1999-08-25, 02:22:00,VALID,0,VALID,97.7546,VALID,-0.101885,VALID,18.8919,VALID,183,VALID,0.777043,
1999-08-25, 02:23:00,VALID,0,VALID,97.7902,VALID,-0.0849042,VALID,18.8654,VALID,169,VALID,0.720846,
1999-08-25, 02:24:01,VALID,0,VALID,97.836,VALID,-0.101885,VALID,18.8792,VALID,172,VALID,0.368164,
1999-08-25, 02:25:00,VALID,0,VALID,97.8563,VALID,-0.101885,VALID,18.8857,VALID,157,VALID,0.51727,
1999-08-25, 02:26:00,VALID,0,VALID,97.9263,VALID,-0.101885,VALID,18.8855,VALID,100,VALID,0.52763,
1999-08-25, 02:27:00,VALID,0,VALID,98.0102,VALID,-0.0679233,VALID,18.8755,VALID,119,VALID,0.377745,
1999-08-25, 02:28:00,VALID,0,VALID,98.0522,VALID,-0.0679233,VALID,18.8723,VALID,119,VALID,0.149071,
1999-08-25, 02:29:00,VALID,0,VALID,98.0738,VALID,-0.0849042,VALID,18.8792,VALID,119,VALID,0.00500801,
1999-08-25, 02:30:00,VALID,0,VALID,98.0928,VALID,-0.0509425,VALID,18.8691,VALID,141,VALID,0,
1999-08-25, 02:31:00,VALID,0,VALID,98.0878,VALID,-0.0849042,VALID,18.8661,VALID,188,VALID,0.0721628,
1999-08-25, 02:32:00,VALID,0,VALID,98.0992,VALID,-0.0679233,VALID,18.8626,VALID,198,VALID,0.0450247,
1999-08-25, 02:33:00,VALID,0,VALID,98.1285,VALID,-0.0509425,VALID,18.8561,VALID,206,VALID,0,
1999-08-25, 02:34:00,VALID,0,VALID,98.1386,VALID,-0.0849042,VALID,18.8564,VALID,224,VALID,0,
1999-08-25, 02:35:00,VALID,0,VALID,98.1615,VALID,-0.0679233,VALID,18.8596,VALID,210,VALID,0,
1999-08-25, 02:36:00,VALID,0,VALID,98.1679,VALID,-0.0509425,VALID,18.8469,VALID,203,VALID,0,
1999-08-25, 02:37:00,VALID,0,VALID,98.2048,VALID,-0.0339617,VALID,18.8335,VALID,203,VALID,0.886914,
1999-08-25, 02:38:00,VALID,0,VALID,98.2493,VALID,-0.0849042,VALID,18.8345,VALID,211,VALID,0.717928,
1999-08-25, 02:39:00,VALID,0,VALID,98.2632,VALID,-0.0849042,VALID,18.8208,VALID,208,VALID,1.06387,
1999-08-25, 02:40:00,VALID,0,VALID,98.2671,VALID,-0.0849042,VALID,18.8405,VALID,206,VALID,1.00866,
1999-08-25, 02:41:00,VALID,0,VALID,98.2429,VALID,-0.0339617,VALID,18.8303,VALID,192,VALID,1.04878,
1999-08-25, 02:42:00,VALID,0,VALID,98.1513,VALID,-0.0679233,VALID,18.84,VALID,190,VALID,1.15004,
1999-08-25, 02:43:00,VALID,0,VALID,98.0318,VALID,-0.0849042,VALID,18.8601,VALID,174,VALID,0.909539,
1999-08-25, 02:44:00,VALID,0,VALID,97.9428,VALID,-0.0509425,VALID,18.8527,VALID,171,VALID,0.799831,
1999-08-25, 02:45:00,VALID,0,VALID,97.8576,VALID,-0.0679233,VALID,18.8691,VALID,185,VALID,0.879317,
1999-08-25, 02:46:00,VALID,0,VALID,97.836,VALID,-0.0509425,VALID,18.8785,VALID,191,VALID,1.03762,
1999-08-25, 02:47:00,VALID,0,VALID,97.8525,VALID,-0.0509425,VALID,18.8889,VALID,193,VALID,0.914263,
1999-08-25, 02:48:00,VALID,0,VALID,97.8818,VALID,-0.0849042,VALID,18.8721,VALID,198,VALID,0.952324,
1999-08-25, 02:49:00,VALID,0,VALID,97.8868,VALID,-0.0849042,VALID,18.8755,VALID,205,VALID,0.534766,
1999-08-25, 02:50:00,VALID,0,VALID,97.9085,VALID,-0.0849042,VALID,18.8785,VALID,193,VALID,0.668973,
1999-08-25, 02:51:00,VALID,0,VALID,97.9301,VALID,-0.0849042,VALID,18.8788,VALID,187,VALID,0.277148,
1999-08-25, 02:52:00,VALID,0,VALID,97.9225,VALID,-0.0679233,VALID,18.8857,VALID,189,VALID,0.101768,
1999-08-25, 02:53:00,VALID,0,VALID,97.9377,VALID,-0.0509425,VALID,18.8954,VALID,188,VALID,0,
1999-08-25, 02:54:00,VALID,0,VALID,97.9021,VALID,-0.0339617,VALID,18.8827,VALID,188,VALID,0.138221,
1999-08-25, 02:55:00,VALID,0,VALID,97.8729,VALID,-0.0679233,VALID,18.8723,VALID,197,VALID,0.385099,
1999-08-25, 02:56:00,VALID,0,VALID,97.8576,VALID,-0.0339617,VALID,18.8628,VALID,199,VALID,0.600195,
1999-08-25, 02:57:00,VALID,0,VALID,97.8652,VALID,-0.0339617,VALID,18.8695,VALID,198,VALID,0.743832,
1999-08-25, 02:58:00,VALID,0,VALID,97.8309,VALID,-0.0339617,VALID,18.8792,VALID,198,VALID,1.01505,
1999-08-25, 02:59:00,VALID,0,VALID,97.761,VALID,-0.0849042,VALID,18.8762,VALID,197,VALID,1.01267,
1999-08-25, 03:00:00,VALID,0,VALID,97.5969,VALID,-0.0849042,VALID,18.8924,VALID,194,VALID,1.26077,
1999-08-25, 03:01:00,VALID,0,VALID,97.3795,VALID,-0.0849042,VALID,18.924,VALID,196,VALID,0.852965,
1999-08-25, 03:02:00,VALID,0,VALID,97.1557,VALID,-0.0849042,VALID,18.9506,VALID,191,VALID,1.03737,
1999-08-25, 03:03:00,VALID,0,VALID,97.0311,VALID,-0.0339617,VALID,18.973,VALID,184,VALID,0.863898,
1999-08-25, 03:04:00,VALID,0,VALID,96.9751,VALID,-0.0679233,VALID,18.9797,VALID,194,VALID,1.03351,
1999-08-25, 03:05:00,VALID,0,VALID,96.9459,VALID,-0.0849042,VALID,18.9628,VALID,204,VALID,0.96855,
1999-08-25, 03:06:00,VALID,0,VALID,97.0374,VALID,-0.0509425,VALID,18.9563,VALID,202,VALID,0.942356,
1999-08-25, 03:07:01,VALID,0,VALID,97.115,VALID,-0.0509425,VALID,18.9635,VALID,205,VALID,0.997266,
1999-08-25, 03:08:00,VALID,0,VALID,97.1786,VALID,-0.0339617,VALID,18.9173,VALID,195,VALID,0.855769,
1999-08-25, 03:09:00,VALID,0,VALID,97.2943,VALID,-0.0679233,VALID,18.9143,VALID,193,VALID,1.07695,
1999-08-25, 03:10:00,VALID,0,VALID,97.321,VALID,-0.0169808,VALID,18.9081,VALID,174,VALID,0.835526,
1999-08-25, 03:11:00,VALID,0,VALID,97.2968,VALID,-0.0849042,VALID,18.8758,VALID,156,VALID,0.724609,
1999-08-25, 03:12:00,VALID,0,VALID,97.3922,VALID,-0.0339617,VALID,18.8268,VALID,152,VALID,0.787162,
1999-08-25, 03:13:00,VALID,0,VALID,97.5117,VALID,-0.0679233,VALID,18.8049,VALID,162,VALID,0.85663,
1999-08-25, 03:14:00,VALID,0,VALID,97.658,VALID,0.0169808,VALID,18.7908,VALID,163,VALID,0.857171,
1999-08-25, 03:15:00,VALID,0,VALID,97.794,VALID,0.0339617,VALID,18.7712,VALID,176,VALID,0.91324,
1999-08-25, 03:16:00,VALID,0,VALID,97.8818,VALID,0.0509425,VALID,18.7779,VALID,195,VALID,0.976563,
1999-08-25, 03:17:00,VALID,0,VALID,97.9619,VALID,0,VALID,18.7682,VALID,202,VALID,1.08121,
1999-08-25, 03:18:00,VALID,0,VALID,97.967,VALID,0,VALID,18.7749,VALID,212,VALID,1.12747,
1999-08-25, 03:19:00,VALID,0,VALID,98.0127,VALID,0,VALID,18.7809,VALID,208,VALID,1.08814,
1999-08-25, 03:20:00,VALID,0,VALID,98.0191,VALID,0,VALID,18.791,VALID,204,VALID,1.1905,
1999-08-25, 03:21:00,VALID,0,VALID,98.0064,VALID,0,VALID,18.7843,VALID,215,VALID,1.21445,
1999-08-25, 03:22:00,VALID,0,VALID,98.0344,VALID,0.0169808,VALID,18.798,VALID,211,VALID,1.43013,
1999-08-25, 03:23:00,VALID,0,VALID,98.1577,VALID,0.0169808,VALID,18.7615,VALID,193,VALID,1.35957,
1999-08-25, 03:24:00,VALID,0,VALID,98.2493,VALID,0.0509425,VALID,18.749,VALID,187,VALID,1.12253,
1999-08-25, 03:25:00,VALID,0,VALID,98.3828,VALID,0,VALID,18.7197,VALID,192,VALID,1.42293,
1999-08-25, 03:26:00,VALID,0,VALID,98.4794,VALID,0.0169808,VALID,18.7103,VALID,200,VALID,1.54347,
1999-08-25, 03:27:00,VALID,0,VALID,98.5494,VALID,0.0169808,VALID,18.6904,VALID,203,VALID,1.01086,
1999-08-25, 03:28:00,VALID,0,VALID,98.5672,VALID,0.0169808,VALID,18.6837,VALID,209,VALID,1.01074,
1999-08-25, 03:29:01,VALID,0,VALID,98.5951,VALID,-0.0509425,VALID,18.6985,VALID,207,VALID,1.15461,
1999-08-25, 03:30:00,VALID,0,VALID,98.6142,VALID,-0.0509425,VALID,18.6883,VALID,218,VALID,0.989139,
1999-08-25, 03:31:00,VALID,0,VALID,98.5786,VALID,-0.0509425,VALID,18.6948,VALID,207,VALID,0.892103,
1999-08-25, 03:32:00,VALID,0,VALID,98.5443,VALID,-0.0509425,VALID,18.7149,VALID,219,VALID,0.749789,
1999-08-25, 03:33:00,VALID,0,VALID,98.5125,VALID,-0.0849042,VALID,18.7084,VALID,206,VALID,0.667869,
1999-08-25, 03:34:00,VALID,0,VALID,98.4972,VALID,-0.0679233,VALID,18.708,VALID,217,VALID,0.824958,
1999-08-25, 03:35:00,VALID,0,VALID,98.4565,VALID,-0.0849042,VALID,18.7179,VALID,221,VALID,0.582031,
1999-08-25, 03:36:00,VALID,0,VALID,98.412,VALID,-0.0679233,VALID,18.7211,VALID,214,VALID,0.676398,
1999-08-25, 03:37:00,VALID,0,VALID,98.3599,VALID,-0.0339617,VALID,18.7177,VALID,209,VALID,0.316506,
1999-08-25, 03:38:00,VALID,0,VALID,98.323,VALID,-0.0169808,VALID,18.7211,VALID,220,VALID,0.626478,
1999-08-25, 03:39:01,VALID,0,VALID,98.2747,VALID,-0.0339617,VALID,18.7142,VALID,213,VALID,0.753516,
1999-08-25, 03:40:01,VALID,0,VALID,98.2416,VALID,-0.0339617,VALID,18.7047,VALID,209,VALID,0.818109,
1999-08-25, 03:41:00,VALID,0,VALID,98.1933,VALID,-0.0679233,VALID,18.6918,VALID,204,VALID,0.767383,
1999-08-25, 03:42:00,VALID,0,VALID,98.2022,VALID,-0.0849042,VALID,18.6955,VALID,207,VALID,0.808594,
1999-08-25, 03:43:00,VALID,0,VALID,98.1958,VALID,-0.0849042,VALID,18.6955,VALID,193,VALID,0.832617,
1999-08-25, 03:44:00,VALID,0,VALID,98.1946,VALID,-0.0509425,VALID,18.689,VALID,191,VALID,0.842061,
1999-08-25, 03:45:00,VALID,0,VALID,98.1857,VALID,-0.0849042,VALID,18.689,VALID,193,VALID,0.910895,
1999-08-25, 03:46:00,VALID,0,VALID,98.1577,VALID,-0.0679233,VALID,18.6923,VALID,192,VALID,0.754006,
1999-08-25, 03:47:00,VALID,0,VALID,98.1374,VALID,-0.101885,VALID,18.6985,VALID,196,VALID,0.735814,
1999-08-25, 03:48:00,VALID,0,VALID,98.1234,VALID,-0.0679233,VALID,18.7149,VALID,205,VALID,0.646115,
1999-08-25, 03:49:00,VALID,0,VALID,98.0814,VALID,-0.0509425,VALID,18.7013,VALID,208,VALID,0.622944,
1999-08-25, 03:50:00,VALID,0,VALID,98.0509,VALID,-0.0849042,VALID,18.711,VALID,199,VALID,0.863692,
1999-08-25, 03:51:00,VALID,0,VALID,98.0369,VALID,-0.0849042,VALID,18.7207,VALID,193,VALID,0.610577,
1999-08-25, 03:52:00,VALID,0,VALID,98.014,VALID,-0.0849042,VALID,18.7246,VALID,193,VALID,0.831931,
1999-08-25, 03:53:00,VALID,0,VALID,97.9835,VALID,-0.0679233,VALID,18.7301,VALID,183,VALID,0.779883,
1999-08-25, 03:54:00,VALID,0,VALID,97.9453,VALID,-0.0509425,VALID,18.7497,VALID,180,VALID,0.403125,
1999-08-25, 03:55:00,VALID,0,VALID,97.8856,VALID,-0.0169808,VALID,18.7597,VALID,184,VALID,0.427344,
1999-08-25, 03:56:00,VALID,0,VALID,97.869,VALID,-0.0679233,VALID,18.7661,VALID,186,VALID,0.303248,
1999-08-25, 03:57:00,VALID,0,VALID,97.8322,VALID,-0.0509425,VALID,18.7629,VALID,183,VALID,0.123522,
1999-08-25, 03:58:00,VALID,0,VALID,97.8106,VALID,-0.0509425,VALID,18.7465,VALID,179,VALID,0,
1999-08-25, 03:59:00,VALID,0,VALID,97.8423,VALID,-0.0169808,VALID,18.743,VALID,178,VALID,0,
1999-08-25, 04:00:00,VALID,0,VALID,97.9136,VALID,-0.0679233,VALID,18.7338,VALID,177,VALID,0,
1999-08-25, 04:01:01,VALID,0,VALID,98.0178,VALID,-0.0339617,VALID,18.7241,VALID,184,VALID,0,
1999-08-25, 04:02:01,VALID,0,VALID,98.1017,VALID,-0.0679233,VALID,18.7144,VALID,204,VALID,0.360709,